Regional Weather Roundup
Issued by NWS

Home | Current Version | Previous Version | Graphics & Text | Print | Product List | Glossary On
Versions: 1 2 3 4 5 6 7 8 9 10 11 12 13 14 15 16 17 18 19 20 21 22 23 24 25 26 27 28 29 30 31 32 33 34 35 36 37 38 39 40 41 42 43 44 45 46 47 48 49 50
000
ASUS45 KPSR 132300
RWRAZ

PRELIMINARY ARIZONA REGIONAL HOURLY WEATHER ROUNDUP
NATIONAL WEATHER SERVICE PHOENIX AZ
400 PM MST SUN JUL 13 2014

NOTE: FAIR INDICATES FEW OR NO CLOUDS BELOW 12,000 FEET WITH NO
SIGNIFICANT WEATHER AND/OR OBSTRUCTIONS TO VISIBILITY.

AZZ001>003-036-140000-
NORTHWEST ARIZONA

CITY           SKY/WX    TMP DP  RH WIND       PRES   REMARKS
KINGMAN        MOSUNNY   99  46  16 SW12      29.98F
$$

AZZ004>008-015-016-018-140000-
NORTH CENTRAL ARIZONA

CITY           SKY/WX    TMP DP  RH WIND       PRES   REMARKS
GRAND CANYON   PTSUNNY   88  44  21 NE13G21   30.27S
WILLIAMS       CLOUDY    68  57  68 S9        30.35S
PRESCOTT       CLOUDY    87  52  29 SW17      30.14S
FLAGSTAFF      PTSUNNY   79  51  37 SW5       30.31S
PAYSON         CLOUDY    81  52  36 CALM      30.18F
PAGE           MOSUNNY  104  40  11 N10G16    30.02F
$$

AZZ009>014-017-140000-
NORTHEAST ARIZONA

CITY           SKY/WX    TMP DP  RH WIND       PRES   REMARKS
WINSLOW        NOT AVBL
SAINT JOHNS    MOSUNNY   91  46  21 NW3       30.14F
WINDOW ROCK    CLOUDY    84  44  24 CALM      30.27F
$$

AZZ023-140000-
GREATER PHOENIX AREA

CITY           SKY/WX    TMP DP  RH WIND       PRES   REMARKS
PHOENIX        PTSUNNY  108  55  17 S12       29.76F HX 107
GLENDALE       MOSUNNY  109  55  17 SE7       29.78F HX 108
LUKE AFB       NOT AVBL
DEER VALLEY    MOSUNNY  104  54  19 S8G16     29.80F HX 102
SCOTTSDALE     PTSUNNY  106  56  19 S5        29.82F HX 105
MESA-FALCON    PTSUNNY  104  55  20 W6        29.79F HX 103
MESA-GATEWAY   PTSUNNY  106  52  16 S9        29.82F HX 103
CHANDLER       PTSUNNY  108  57  19 S12       29.79F HX 107
$$

AZZ027-028-140000-
SOUTHWEST MARICOPA COUNTY AND PINAL COUNTY

CITY           SKY/WX    TMP DP  RH WIND       PRES   REMARKS
CASA GRANDE    PTSUNNY  102  57  22 E10       29.83F HX 101
$$

AZZ503-504-507>509-140000-
SOUTHEAST ARIZONA

CITY           SKY/WX    TMP DP  RH WIND       PRES   REMARKS
TUCSON         PTSUNNY  100  54  21 S12       29.92F
DAVIS-MONTHAN  CLOUDY    99  57  24 S8        29.90F
NOGALES        LGT RAIN  81  67  62 S7        30.05F
SIERRA VISTA   MOSUNNY   89  55  31 S12G17    30.10F
SAFFORD        PTSUNNY   99  51  19 SE7       29.95F
$$

AZZ020-021-025-026-031-140000-
SOUTHWEST ARIZONA

CITY           SKY/WX    TMP DP  RH WIND       PRES   REMARKS
YUMA           NOT AVBL
$$

CAZ031-033-041-043-047-048-061-140000-
SOUTHERN CALIFORNIA

CITY           SKY/WX    TMP DP  RH WIND       PRES   REMARKS
DOWNTOWN L.A.  SUNNY     81  61  50 VRB7      29.86F
L.A. AIRPORT   MOSUNNY   75  62  64 W10       29.88F
SAN DIEGO      PTSUNNY   73  61  65 SW10      29.91F
BURBANK        SUNNY     86  59  39 S12       29.85F
ONTARIO        MOSUNNY   93  62  35 SW14G24   29.85F
RIVERSIDE      MOSUNNY   90  62  39 SW13      29.85F
PALM SPRINGS   SUNNY    110  46  11 SE6       29.75F HX 105
EL CENTRO NAS  SUNNY    110  47  12 SE6       29.70F HX 106
IMPERIAL       SUNNY    110  47  12 E9        29.70F HX 106
BLYTHE         SUNNY    110  47  12 SW6       29.72F HX 106
$$

NVZ020-UTZ003-140000-
SOUTHERN NEVADA-UTAH

CITY           SKY/WX    TMP DP  RH WIND       PRES   REMARKS
LAS VEGAS      NOT AVBL
SALT LAKE CITY MOSUNNY   97  43  15 NW12      30.10F
$$

NMZ009-TXZ055-140000-
NEW MEXICO-WEST TEXAS

CITY           SKY/WX    TMP DP  RH WIND       PRES   REMARKS
ALBUQUERQUE    CLOUDY    84  56  38 E7        30.20F THUNDER
EL PASO        CLOUDY    86  56  35 CALM      30.08F THUNDER
$$


........................KEY........................
SKY/WX - SKY CONDITION/WEATHER
TMP    - TEMPERATURE IN FAHRENHEIT
DP     - DEW POINT IN FAHRENHEIT
RH     - RELATIVE HUMIDITY IN PERCENT
WIND   - DIRECTION AND SPEED IN MILES PER HOUR (MPH)
VRB    - VARIABLE WIND DIRECTION
PRES   - MEAN SEA LEVEL PRESSURE IN INCHES OF MERCURY
         F - FALLING PRESSURE   R - RISING PRESSURE
         S - STEADY PRESSURE
VSB    - VISIBILITY IN MILES
HX     - HEAT INDEX IN FAHRENHEIT
WCI    - WIND CHILL INDEX IN FAHRENHEIT
TC     - TEMPERATURE IN CELSIUS WHICH IS ALSO KNOWN AS
         TEMPERATURE IN CENTIGRADE
AFB    - AIR FORCE BASE
         LUKE AFB IS LUKE AIR FORCE BASE
         DAVIS-MONTHAN IS DAVIS-MONTHAN AIR FORCE BASE
NAS    - NAVAL AIR STATION
         EL CENTRO NAS IS EL CENTRO NAVAL AIR STATION
N/A    - NOT AVAILABLE


USA.gov is the U.S. government's official web portal to all federal, state and local government web resources and services.